Regional Weather Roundup
Issued by NWS

Home | Current Version | Previous Version | Text Only | Print | Product List | Glossary Off
Versions: 1 2 3 4 5 6 7 8 9 10 11 12 13 14 15 16 17 18 19 20 21 22 23 24 25 26 27 28 29 30 31 32 33 34 35 36 37 38 39 40 41 42 43 44 45 46 47 48 49 50

000
ASUS43 KMKX 200121
RWRWI

WISCONSIN REGIONAL WEATHER ROUNDUP
NATIONAL WEATHER SERVICE MILWAUKEE/SULLIVAN WI
800 PM CDT FRI SEP 19 2014

NOTE: "FAIR" INDICATES FEW OR NO CLOUDS BELOW 12,000 FEET WITH NO
SIGNIFICANT WEATHER AND/OR OBSTRUCTIONS TO VISIBILITY.

WIZ001-002-006>008-014>016-023>028-200200-
NORTHWEST WISCONSIN

CITY           SKY/WX    TMP DP  RH WIND       PRES   REMARKS
SUPERIOR ARPT  PTCLDY    60  60  98 SW3       29.63S FOG
ASHLAND        CLOUDY    65  59  81 SW12      29.65S
HAYWARD        CLOUDY    65  61  87 SW5       29.69R
SIREN          CLOUDY    65  63  94 S5        29.68S
RICE LAKE      CLOUDY    70  59  69 SE12      29.70F
LADYSMITH      CLOUDY    68  58  70 S10G16    29.73S
EAU CLAIRE     MOCLDY    71  59  65 S14       29.72S
MENOMONIE      CLOUDY    73  61  64 S14G21    29.71R
NEW RICHMOND   LGT RAIN  67  62  82 N3        29.70R
OSCEOLA        LGT RAIN  66  66 100 SE5       29.70F
$$

WIZ003>005-009-010-017-018-200200-
NORTH CENTRAL WISCONSIN

CITY           SKY/WX    TMP DP  RH WIND       PRES   REMARKS
WOODRUFF       MOCLDY    64  54  69 S20G25    29.69F
RHINELANDER    CLOUDY    64  53  67 S10       29.77F
EAGLE RIVER    MOCLDY    64  51  62 SW8G18    29.72F
LAND O LAKES   MOCLDY    65  53  65 S14G25    29.71F
PHILLIPS       CLOUDY    65  57  74 S12G20    29.70F
TOMAHAWK       CLOUDY    64  54  69 S5        29.77S
MEDFORD        CLOUDY    65  55  70 S12       29.78S
MERRILL        CLOUDY    66  55  68 S9        29.78F
$$

WIZ029-030-035-036-043>047-200200-
CENTRAL WISCONSIN

CITY           SKY/WX    TMP DP  RH WIND       PRES   REMARKS
WAUSAU         CLOUDY    67  53  61 S16       29.78F
MOSINEE        MOCLDY    66  55  68 SW10      29.84R
MARSHFIELD     CLOUDY    66  55  67 S13       29.80S
STEVENS POINT  PTCLDY    65  51  60 S9        29.83R
WAUPACA        PTCLDY    68  51  54 S10       29.81S
WAUTOMA        PTCLDY    69  52  54 S12       29.82F
WISC RAPIDS    PTCLDY    67  53  61 SW10      29.84R
CAMP DOUGLAS   PTCLDY    68  55  62 SW8       29.83R
$$

WIZ011>013-019>022-031-037>040-048>050-200200-
NORTHEAST WISCONSIN

CITY           SKY/WX    TMP DP  RH WIND       PRES   REMARKS
ANTIGO         CLOUDY    63  53  71 S12       29.81F
STURGEON BAY   MOCLDY    63  50  63 S16G28    29.83S
GREEN BAY      MOCLDY    67  51  56 S15G22    29.82S
MANITOWOC      PTCLDY    61  53  75 S13       29.87S
APPLETON       MOCLDY    66  48  52 S15G23    29.84S
CLINTONVILLE   PTCLDY    66  50  55 SW7       29.82R
OSHKOSH        PTCLDY    67  51  56 S14       29.84S
$$

WIZ032>034-041-042-053>061-200200-
SOUTHWEST WISCONSIN

CITY           SKY/WX    TMP DP  RH WIND       PRES   REMARKS
LA CROSSE      CLEAR     70  57  63 S9        29.80R
SPARTA         CLEAR     68  52  56 SW6       29.82R
VIROQUA        FAIR      67  55  65 S12G18    29.83R
BOSCOBEL       PTCLDY    72  54  53 S9G22     29.82F
PRAIRIE DU CHI CLEAR     71  53  51 S15G24    29.81S
PLATTEVILLE    FAIR      67  54  63 S9        29.89S
$$

WIZ056-057-062-063-064-067-068-200200-
SOUTH CENTRAL WISCONSIN

CITY           SKY/WX    TMP DP  RH WIND       PRES   REMARKS
BARABOO/DELLS  CLEAR     67  49  52 S17G23    29.83R
LONE ROCK      PTCLDY    73  52  47 S7G17     29.84F
WATERTOWN      CLEAR     65  50  58 S7        29.89F
MADISON        MOCLDY    69  53  56 S14       29.87F
MIDDLETON      FAIR      68  51  53 S12G18    29.87F
MONROE         PTCLDY    64  54  68 S17       29.90F
JANESVILLE     CLEAR     70  48  46 S16G22    29.92F
$$

WIZ051-052-058>065-066-070>072-200200-
SOUTHEAST WISCONSIN

CITY           SKY/WX    TMP DP  RH WIND       PRES   REMARKS
MILWAUKEE      MOCLDY    64  49  57 S13       29.92F
WAUKESHA       PTCLDY    64  46  52 S9G17     29.93F
MILWAUKEE/TIMM CLEAR     66  45  45 S12       29.92F
RACINE         PTCLDY    63  51  65 S9        29.96F
BURLINGTON     PTCLDY    62  47  58 S7        29.93F
KENOSHA        PTCLDY    64  47  53 S8        29.96F
FOND DU LAC    PTCLDY    67  49  52 S16       29.86S
SHEBOYGAN      PTCLDY    62  51  67 S16       29.87F
WEST BEND      PTCLDY    64  46  52 S9G18     29.88F
JUNEAU         CLEAR     66  50  57 S15G21    29.88F
$$

LSZ147-162-200200-
LAKE SUPERIOR

STATION/POSITION TIME  TEMP    WIND        PRES    WAVE
                       AIR SEA DIR/SP/G            HT/PER
                 (UTC) (F)     (DEG/KT/KT) (MB)    (FT/S)
W MID LAKE BUOY  0050   54 47  230/  6/  6 1003.3F   2/ 4
DEVILS ISLAND    0100   57     280/ 11/ 11 1003.8R
PORT WING        0100   57     270/  6/ 16 1004.4
SAXON HARBOR     0000   69     200/ 12/ 19 1003.4F
$$

LMZ867-665-643>646-200200-
LAKE MICHIGAN

STATION/POSITION TIME  TEMP    WIND        PRES    WAVE
                       AIR SEA DIR/SP/G            HT/PER
                 (UTC) (F)     (DEG/KT/KT) (MB)    (FT/S)
N MID LAKE BUOY  0050   62 58  200/ 27/ 33 1009.1F   9/ 8
NORTHPORT PIER   0000   61     160/ 14/ 23 1009.5F
SISTER BAY       2312          190/ 27/ 37   N/A
KEWAUNEE LAKESHO 0100   62     190/ 20/ 28 1010.2R
SHEBOYGAN LAKESH 0100   61 54  190/ 26/ 29 1011.7F
PORT WASHINGTON  0040   60     190/ 10/ 15 1012.9F
ATWATER BUOY     0100   61     160/ 16/ 17 1013.9F
MILWAUKEE LAKESH 0100   63     180/ 11/ 14   N/A
S MID LAKE BUOY  0050   67 64  170/ 16/ 19 1015.2F   2/ 4
KENOSHA   LAKESH 0100   66     180/ 11/ 12 1014.2F
$$

TC  - TEMPERATURE IN CELSIUS
VSB - VISIBILITY IN STATUTE MILES
WCI - WIND CHILL INDEX
HX  - HEAT INDEX




USA.gov is the U.S. government's official web portal to all federal, state and local government web resources and services.